Year,Month,Day,Hour,Minute,Value (Times are PST for temperature in C)
2017,09,17,13,28,13.20
2017,09,17,13,29,13.20
2017,09,17,13,30,13.20
2017,09,17,13,31,13.10
2017,09,17,13,32,13.10
2017,09,17,13,33,13.00
2017,09,17,13,34,13.00
2017,09,17,13,35,13.00
2017,09,17,13,36,13.10
2017,09,17,13,37,13.00
2017,09,17,13,38,13.00
2017,09,17,13,39,13.00
2017,09,17,13,40,12.90
2017,09,17,13,41,12.90
2017,09,17,13,42,12.90
2017,09,17,13,43,12.90
2017,09,17,13,44,13.00
2017,09,17,13,45,13.00
2017,09,17,13,46,13.00
2017,09,17,13,47,12.90
2017,09,17,13,48,12.90
2017,09,17,13,49,12.90
2017,09,17,13,50,12.90
2017,09,17,13,51,12.90
2017,09,17,13,52,12.90
2017,09,17,13,53,12.90
2017,09,17,13,54,12.90
2017,09,17,13,55,13.00
2017,09,17,13,56,13.00
2017,09,17,13,57,13.00
2017,09,17,13,58,13.00
2017,09,17,13,59,13.00
2017,09,17,14,00,13.00
2017,09,17,14,01,13.00
2017,09,17,14,02,13.10
2017,09,17,14,03,13.00
2017,09,17,14,04,13.10
2017,09,17,14,05,13.10
2017,09,17,14,06,13.10
2017,09,17,14,07,13.00
2017,09,17,14,08,13.00
2017,09,17,14,09,13.10
2017,09,17,14,10,13.10
2017,09,17,14,11,13.10
2017,09,17,14,12,13.10
2017,09,17,14,13,13.10
2017,09,17,14,14,13.20
2017,09,17,14,15,13.20
2017,09,17,14,16,13.30
2017,09,17,14,17,13.30
2017,09,17,14,18,13.30
2017,09,17,14,19,13.30
2017,09,17,14,20,13.30
2017,09,17,14,21,13.40
2017,09,17,14,22,13.40
2017,09,17,14,23,13.40
2017,09,17,14,24,13.40
2017,09,17,14,25,13.50
2017,09,17,14,26,13.60
2017,09,17,14,27,13.60
2017,09,17,14,28,13.60
2017,09,17,14,29,13.70
2017,09,17,14,30,13.70
2017,09,17,14,31,13.70
2017,09,17,14,32,13.80
2017,09,17,14,33,13.80
2017,09,17,14,34,13.80
2017,09,17,14,35,13.80
2017,09,17,14,36,13.80
2017,09,17,14,37,13.80
2017,09,17,14,38,13.70
2017,09,17,14,39,13.70
2017,09,17,14,40,13.70
2017,09,17,14,41,13.70
2017,09,17,14,42,13.70
2017,09,17,14,43,13.60
2017,09,17,14,44,13.60
2017,09,17,14,45,13.60
2017,09,17,14,46,13.70
2017,09,17,14,47,13.70
2017,09,17,14,48,13.70
2017,09,17,14,49,13.80
2017,09,17,14,50,13.80
2017,09,17,14,51,13.80
2017,09,17,14,52,13.90
2017,09,17,14,53,13.90
2017,09,17,14,54,13.90
2017,09,17,14,55,13.90
2017,09,17,14,56,13.90
2017,09,17,14,57,13.90
2017,09,17,14,58,13.90
2017,09,17,14,59,13.90
2017,09,17,15,00,13.90
2017,09,17,15,01,13.90
2017,09,17,15,02,13.90
2017,09,17,15,03,13.90
2017,09,17,15,04,13.90
2017,09,17,15,05,13.90
2017,09,17,15,06,14.00
2017,09,17,15,07,14.00
2017,09,17,15,08,14.10
2017,09,17,15,09,14.10
2017,09,17,15,10,14.10
2017,09,17,15,11,14.00
2017,09,17,15,12,14.00
2017,09,17,15,13,14.10
2017,09,17,15,14,14.00
2017,09,17,15,15,14.00
2017,09,17,15,16,14.10
2017,09,17,15,17,14.10
2017,09,17,15,18,14.20
2017,09,17,15,19,14.20
2017,09,17,15,20,14.20
2017,09,17,15,21,14.20
2017,09,17,15,22,14.20
2017,09,17,15,23,14.20
2017,09,17,15,24,14.20
2017,09,17,15,25,14.10
2017,09,17,15,26,14.10
2017,09,17,15,27,14.10
2017,09,17,15,28,14.20
2017,09,17,15,29,14.20
2017,09,17,15,30,14.20
2017,09,17,15,31,14.20
2017,09,17,15,32,14.20
2017,09,17,15,33,14.20
2017,09,17,15,34,14.30
2017,09,17,15,35,14.30
2017,09,17,15,36,14.30
2017,09,17,15,37,14.30
2017,09,17,15,38,14.40
2017,09,17,15,39,14.40
2017,09,17,15,40,14.40
2017,09,17,15,41,14.40
2017,09,17,15,42,14.40
2017,09,17,15,43,14.40
2017,09,17,15,44,14.40
2017,09,17,15,45,14.40
2017,09,17,15,46,14.40
2017,09,17,15,47,14.40
2017,09,17,15,48,14.40
2017,09,17,15,49,14.40
2017,09,17,15,50,14.40
2017,09,17,15,51,14.40
2017,09,17,15,52,14.40
2017,09,17,15,53,14.40
2017,09,17,15,54,14.40
2017,09,17,15,55,14.40
2017,09,17,15,56,14.40
2017,09,17,15,57,14.40
2017,09,17,15,58,14.40
2017,09,17,15,59,14.40
2017,09,17,16,00,14.40
2017,09,17,16,01,14.40
2017,09,17,16,02,14.50
2017,09,17,16,03,14.50
2017,09,17,16,04,14.50
2017,09,17,16,05,14.50
2017,09,17,16,06,14.60
2017,09,17,16,07,14.60
2017,09,17,16,08,14.60
2017,09,17,16,09,14.60
2017,09,17,16,10,14.60
2017,09,17,16,11,14.60
2017,09,17,16,12,14.70
2017,09,17,16,13,14.60
2017,09,17,16,14,14.60
2017,09,17,16,15,14.60
2017,09,17,16,16,14.60
2017,09,17,16,17,14.60
2017,09,17,16,18,14.60
2017,09,17,16,19,14.60
2017,09,17,16,20,14.60
2017,09,17,16,21,14.70
2017,09,17,16,22,14.70
2017,09,17,16,23,14.70
2017,09,17,16,24,14.70
2017,09,17,16,25,14.80
2017,09,17,16,26,14.80
2017,09,17,16,27,14.80
2017,09,17,16,28,14.70
2017,09,17,16,29,14.70
2017,09,17,16,30,14.70
2017,09,17,16,31,14.70
2017,09,17,16,32,14.70
2017,09,17,16,33,14.70
2017,09,17,16,34,14.70
2017,09,17,16,35,14.70
2017,09,17,16,36,14.70
2017,09,17,16,37,14.70
2017,09,17,16,38,14.60
2017,09,17,16,39,14.60
2017,09,17,16,40,14.60
2017,09,17,16,41,14.50
2017,09,17,16,42,14.50
2017,09,17,16,43,14.50
2017,09,17,16,44,14.50
2017,09,17,16,45,14.50
2017,09,17,16,46,14.60
2017,09,17,16,47,14.60
2017,09,17,16,48,14.60
2017,09,17,16,49,14.60
2017,09,17,16,50,14.60
2017,09,17,16,51,14.60
2017,09,17,16,52,14.70
2017,09,17,16,53,14.70
2017,09,17,16,54,14.70
2017,09,17,16,55,14.70
2017,09,17,16,56,14.70
2017,09,17,16,57,14.70
2017,09,17,16,58,14.70
2017,09,17,16,59,14.70
2017,09,17,17,00,14.70
2017,09,17,17,01,14.60
2017,09,17,17,02,14.60
2017,09,17,17,03,14.60
2017,09,17,17,04,14.60
2017,09,17,17,05,14.60
2017,09,17,17,06,14.50
2017,09,17,17,07,14.50
2017,09,17,17,08,14.50
2017,09,17,17,09,14.50
2017,09,17,17,10,14.50
2017,09,17,17,11,14.40
2017,09,17,17,12,14.40
2017,09,17,17,13,14.40
2017,09,17,17,14,14.30
2017,09,17,17,15,14.30
2017,09,17,17,16,14.30
2017,09,17,17,17,14.30
2017,09,17,17,18,14.30
2017,09,17,17,19,14.30
2017,09,17,17,20,14.30
2017,09,17,17,21,14.40
2017,09,17,17,22,14.40
2017,09,17,17,23,14.40
2017,09,17,17,24,14.40
2017,09,17,17,25,14.50
2017,09,17,17,26,14.50
2017,09,17,17,27,14.40
2017,09,17,17,28,14.40
2017,09,17,17,29,14.40
2017,09,17,17,30,14.40
2017,09,17,17,31,14.40
2017,09,17,17,32,14.40
2017,09,17,17,33,14.40
2017,09,17,17,34,14.40
2017,09,17,17,35,14.40
2017,09,17,17,36,14.30
2017,09,17,17,37,14.30
2017,09,17,17,38,14.30
2017,09,17,17,39,14.30
2017,09,17,17,40,14.30
2017,09,17,17,41,14.30
2017,09,17,17,42,14.30
2017,09,17,17,43,14.30
2017,09,17,17,44,14.30
2017,09,17,17,45,14.30
2017,09,17,17,46,14.30
2017,09,17,17,47,14.30
2017,09,17,17,48,14.30
2017,09,17,17,49,14.20
2017,09,17,17,50,14.20
2017,09,17,17,51,14.20
2017,09,17,17,52,14.10
2017,09,17,17,53,14.10
2017,09,17,17,54,14.10
2017,09,17,17,55,14.00
2017,09,17,17,56,14.00
2017,09,17,17,57,13.90
2017,09,17,17,58,13.90
2017,09,17,17,59,13.90
2017,09,17,18,00,13.90
2017,09,17,18,01,13.90
2017,09,17,18,02,13.90
2017,09,17,18,03,13.90
2017,09,17,18,04,13.90
2017,09,17,18,05,13.90
2017,09,17,18,06,13.90
2017,09,17,18,07,14.00
2017,09,17,18,08,14.00
2017,09,17,18,09,14.00
2017,09,17,18,10,14.10
2017,09,17,18,11,14.10
2017,09,17,18,12,14.10
2017,09,17,18,13,14.10
2017,09,17,18,14,14.10
2017,09,17,18,15,14.10
2017,09,17,18,16,14.10
2017,09,17,18,17,14.10
2017,09,17,18,18,14.10
2017,09,17,18,19,14.10
2017,09,17,18,20,14.10
2017,09,17,18,21,14.10
2017,09,17,18,22,14.10
2017,09,17,18,23,14.00
2017,09,17,18,24,14.00
2017,09,17,18,25,14.00
2017,09,17,18,26,14.00
2017,09,17,18,27,14.00
2017,09,17,18,28,14.00
2017,09,17,18,29,14.00
2017,09,17,18,30,14.00
2017,09,17,18,31,14.00
2017,09,17,18,32,14.00
2017,09,17,18,33,14.00
2017,09,17,18,34,14.00
2017,09,17,18,35,14.00
2017,09,17,18,36,14.00
2017,09,17,18,37,13.90
2017,09,17,18,38,13.90
2017,09,17,18,39,13.80
2017,09,17,18,40,13.80
2017,09,17,18,41,13.80
2017,09,17,18,42,13.70
2017,09,17,18,43,13.70
2017,09,17,18,44,13.70
2017,09,17,18,45,13.70
2017,09,17,18,46,13.70
2017,09,17,18,47,13.70
2017,09,17,18,48,13.70
2017,09,17,18,49,13.60
2017,09,17,18,50,13.60
2017,09,17,18,51,13.60
2017,09,17,18,52,13.60
2017,09,17,18,53,13.50
2017,09,17,18,54,13.50
2017,09,17,18,55,13.50
2017,09,17,18,56,13.50
2017,09,17,18,57,13.40
2017,09,17,18,58,13.40
2017,09,17,18,59,13.40
2017,09,17,19,00,13.40
2017,09,17,19,01,13.40
2017,09,17,19,02,13.30
2017,09,17,19,03,13.30
2017,09,17,19,04,13.30
2017,09,17,19,05,13.30
2017,09,17,19,06,13.30
2017,09,17,19,07,13.30
2017,09,17,19,08,13.30
2017,09,17,19,09,13.20
2017,09,17,19,10,13.20
2017,09,17,19,11,13.20
2017,09,17,19,12,13.20
2017,09,17,19,13,13.20
2017,09,17,19,14,13.20
2017,09,17,19,15,13.20
2017,09,17,19,16,13.20
2017,09,17,19,17,13.20
2017,09,17,19,18,13.20
2017,09,17,19,19,13.10
2017,09,17,19,20,13.10
2017,09,17,19,21,13.10
2017,09,17,19,22,13.10
2017,09,17,19,23,13.10
2017,09,17,19,24,13.10
2017,09,17,19,25,13.10
2017,09,17,19,26,13.10
2017,09,17,19,27,13.10
2017,09,17,19,28,13.10
2017,09,17,19,29,13.10
2017,09,17,19,30,13.10
2017,09,17,19,31,13.10
2017,09,17,19,32,13.10
2017,09,17,19,33,13.10
